CEB915 RPVI-RPVD

Flight info

Callsign CEB915
Flight time N/A
Altitude 13000
Route NNS3D NANAS NANAS1W
Aircraft AT76/M-SDFGIRY/S

Departure

Time 2026-04-19 04:32
Airport Iloilo International Airport (RPVI)

Arrival

Time N/A
Airport Sibulan Airport (RPVD)
Time Latitude Longitude Altitude Speed Heading
2026-04-19 04:13 10.82983 122.49581 136 ft 0 kts 110°
2026-04-19 04:15 10.82983 122.49580 136 ft 0 kts 110°
2026-04-19 04:20 10.82984 122.49580 136 ft 0 kts 111°
2026-04-19 04:21 10.82984 122.49579 136 ft 0 kts 110°
2026-04-19 04:24 10.82984 122.49578 142 ft 2 kts 111°
2026-04-19 04:24 10.82991 122.49563 135 ft 2 kts 122°
2026-04-19 04:25 10.83001 122.49550 137 ft 2 kts 137°
2026-04-19 04:25 10.83015 122.49540 138 ft 2 kts 155°
2026-04-19 04:25 10.83030 122.49535 135 ft 2 kts 172°
2026-04-19 04:25 10.83047 122.49535 136 ft 2 kts 186°
2026-04-19 04:26 10.83063 122.49537 136 ft 2 kts 196°
2026-04-19 04:26 10.83069 122.49540 136 ft 0 kts 200°
2026-04-19 04:27 10.83070 122.49540 136 ft 0 kts 200°
2026-04-19 04:28 10.83066 122.49538 136 ft 4 kts 200°
2026-04-19 04:28 10.83028 122.49500 136 ft 11 kts 248°
2026-04-19 04:28 10.83050 122.49415 137 ft 13 kts 295°
2026-04-19 04:28 10.83084 122.49330 138 ft 13 kts 290°
2026-04-19 04:29 10.83063 122.49245 137 ft 14 kts 212°
2026-04-19 04:29 10.82960 122.49207 137 ft 16 kts 199°
2026-04-19 04:29 10.82849 122.49168 137 ft 18 kts 201°
2026-04-19 04:29 10.82725 122.49121 137 ft 19 kts 198°
2026-04-19 04:30 10.82603 122.49077 137 ft 19 kts 201°
2026-04-19 04:30 10.82483 122.49032 139 ft 18 kts 201°
2026-04-19 04:30 10.82364 122.48989 139 ft 19 kts 198°
2026-04-19 04:30 10.82260 122.48957 139 ft 8 kts 249°
2026-04-19 04:31 10.82265 122.48953 140 ft 0 kts 335°
2026-04-19 04:31 10.82295 122.48961 139 ft 9 kts 21°
2026-04-19 04:31 10.82302 122.48963 139 ft 0 kts 20°
2026-04-19 04:32 10.82442 122.49016 139 ft 54 kts 21°
2026-04-19 04:32 10.82993 122.49230 142 ft 112 kts 26°
2026-04-19 04:32 10.83793 122.49500 453 ft 129 kts 20°
2026-04-19 04:32 10.84636 122.49832 835 ft 134 kts 24°
2026-04-19 04:33 10.85499 122.50205 1377 ft 133 kts 27°
2026-04-19 04:33 10.85967 122.50976 2027 ft 141 kts 88°
2026-04-19 04:33 10.85468 122.51835 2694 ft 152 kts 141°
2026-04-19 04:33 10.84421 122.52013 3251 ft 158 kts 185°
2026-04-19 04:34 10.83321 122.51919 3619 ft 160 kts 182°
2026-04-19 04:34 10.82209 122.51863 4110 ft 159 kts 180°
2026-04-19 04:34 10.81104 122.51878 4533 ft 159 kts 175°
2026-04-19 04:34 10.80003 122.51942 4943 ft 158 kts 175°
2026-04-19 04:35 10.78903 122.52047 5387 ft 158 kts 170°
2026-04-19 04:35 10.77824 122.52252 5808 ft 157 kts 166°
2026-04-19 04:35 10.76771 122.52540 6221 ft 156 kts 161°
2026-04-19 04:35 10.75750 122.52907 6593 ft 156 kts 156°
2026-04-19 04:36 10.74746 122.53336 6937 ft 157 kts 154°
2026-04-19 04:36 10.73751 122.53797 7303 ft 157 kts 153°
2026-04-19 04:36 10.72764 122.54273 7676 ft 157 kts 151°
2026-04-19 04:36 10.71771 122.54751 8021 ft 158 kts 151°
2026-04-19 04:37 10.70776 122.55231 8358 ft 158 kts 151°
2026-04-19 04:37 10.69775 122.55712 8687 ft 161 kts 151°
2026-04-19 04:37 10.68756 122.56199 9055 ft 162 kts 151°
2026-04-19 04:37 10.67732 122.56685 9388 ft 163 kts 151°
2026-04-19 04:38 10.66705 122.57172 9734 ft 163 kts 151°
2026-04-19 04:38 10.65674 122.57662 10045 ft 164 kts 151°
2026-04-19 04:38 10.64636 122.58157 10332 ft 165 kts 151°
2026-04-19 04:38 10.63576 122.58663 10607 ft 170 kts 152°
2026-04-19 04:39 10.62497 122.59172 10931 ft 172 kts 152°
2026-04-19 04:39 10.61410 122.59691 11226 ft 173 kts 152°
2026-04-19 04:39 10.60309 122.60216 11497 ft 176 kts 152°
2026-04-19 04:39 10.59199 122.60744 11778 ft 177 kts 153°
2026-04-19 04:40 10.58082 122.61280 12073 ft 178 kts 152°
2026-04-19 04:40 10.56947 122.61818 12320 ft 182 kts 153°
2026-04-19 04:40 10.56184 122.62181 12533 ft 183 kts 153°
2026-04-19 04:40 10.54646 122.62912 12866 ft 187 kts 154°
2026-04-19 04:41 10.53424 122.63475 12967 ft 200 kts 155°
2026-04-19 04:41 10.52103 122.64080 12941 ft 215 kts 155°
2026-04-19 04:41 10.50705 122.64721 12922 ft 226 kts 154°
2026-04-19 04:41 10.49729 122.65177 12916 ft 232 kts 154°
2026-04-19 04:42 10.48243 122.65875 12930 ft 239 kts 154°
2026-04-19 04:42 10.46711 122.66603 12902 ft 246 kts 154°
2026-04-19 04:42 10.45170 122.67336 12889 ft 249 kts 154°
2026-04-19 04:42 10.43596 122.68089 12888 ft 251 kts 154°
2026-04-19 04:43 10.42016 122.68849 12891 ft 252 kts 154°
2026-04-19 04:43 10.40428 122.69609 12895 ft 253 kts 154°
2026-04-19 04:43 10.38833 122.70372 12899 ft 254 kts 154°
2026-04-19 04:43 10.37238 122.71139 12900 ft 254 kts 154°
2026-04-19 04:44 10.35630 122.71895 12896 ft 255 kts 154°
2026-04-19 04:44 10.34021 122.72654 12897 ft 255 kts 154°
2026-04-19 04:44 10.32408 122.73415 12900 ft 256 kts 154°
2026-04-19 04:44 10.30796 122.74176 12899 ft 256 kts 154°
2026-04-19 04:45 10.29181 122.74936 12898 ft 256 kts 154°
2026-04-19 04:45 10.27565 122.75700 12903 ft 256 kts 154°
2026-04-19 04:45 10.25949 122.76463 12901 ft 256 kts 155°
2026-04-19 04:45 10.24329 122.77226 12905 ft 257 kts 154°
2026-04-19 04:46 10.22710 122.77989 12903 ft 257 kts 155°
2026-04-19 04:46 10.21091 122.78752 12904 ft 257 kts 154°
2026-04-19 04:46 10.19472 122.79518 12904 ft 257 kts 154°
2026-04-19 04:46 10.17853 122.80282 12903 ft 257 kts 155°
2026-04-19 04:47 10.16234 122.81044 12906 ft 256 kts 155°
2026-04-19 04:47 10.14615 122.81804 12903 ft 256 kts 155°
2026-04-19 04:47 10.12996 122.82566 12904 ft 256 kts 155°
2026-04-19 04:47 10.11380 122.83328 12903 ft 256 kts 155°
2026-04-19 04:48 10.09764 122.84090 12904 ft 256 kts 155°
2026-04-19 04:48 10.08148 122.84850 12904 ft 256 kts 155°
2026-04-19 04:48 10.06534 122.85610 12905 ft 256 kts 155°
2026-04-19 04:48 10.04918 122.86368 12909 ft 256 kts 155°
2026-04-19 04:49 10.03305 122.87130 12911 ft 256 kts 155°
2026-04-19 04:49 10.01689 122.87888 12907 ft 256 kts 155°
2026-04-19 04:49 10.00075 122.88649 12904 ft 256 kts 155°
2026-04-19 04:49 9.98461 122.89408 12907 ft 256 kts 155°
2026-04-19 04:50 9.96847 122.90169 12909 ft 256 kts 155°
2026-04-19 04:50 9.95231 122.90926 12912 ft 256 kts 155°
2026-04-19 04:50 9.93618 122.91687 12907 ft 256 kts 155°
2026-04-19 04:50 9.92002 122.92446 12910 ft 256 kts 155°
2026-04-19 04:51 9.90408 122.93196 12908 ft 256 kts 155°
2026-04-19 04:51 9.88792 122.93957 12912 ft 256 kts 155°
2026-04-19 04:51 9.87173 122.94717 12908 ft 256 kts 155°
2026-04-19 04:51 9.85558 122.95476 12908 ft 256 kts 155°
2026-04-19 04:52 9.83945 122.96235 12911 ft 256 kts 155°
2026-04-19 04:52 9.82331 122.96993 12904 ft 255 kts 155°
2026-04-19 04:52 9.80721 122.97753 12907 ft 255 kts 155°
2026-04-19 04:52 9.79143 122.98559 12907 ft 253 kts 144°
2026-04-19 04:53 9.77943 122.99845 12913 ft 252 kts 126°
2026-04-19 04:53 9.76956 123.01314 12921 ft 253 kts 123°
2026-04-19 04:53 9.76005 123.02814 12911 ft 253 kts 123°
2026-04-19 04:53 9.75035 123.04307 12915 ft 254 kts 124°
2026-04-19 04:54 9.74028 123.05781 12912 ft 255 kts 126°
2026-04-19 04:54 9.73002 123.07249 12916 ft 255 kts 125°
2026-04-19 04:54 9.71977 123.08724 12907 ft 256 kts 125°
2026-04-19 04:54 9.70954 123.10196 12905 ft 256 kts 125°
2026-04-19 04:55 9.69929 123.11668 12912 ft 255 kts 125°
2026-04-19 04:55 9.68905 123.13138 12910 ft 255 kts 125°
2026-04-19 04:55 9.67881 123.14610 12916 ft 255 kts 126°
2026-04-19 04:55 9.66855 123.16081 12912 ft 256 kts 126°
2026-04-19 04:56 9.65831 123.17553 12912 ft 256 kts 125°
2026-04-19 04:56 9.64804 123.19024 12910 ft 256 kts 126°
2026-04-19 04:56 9.63779 123.20497 12911 ft 256 kts 125°
2026-04-19 04:56 9.62755 123.21968 12914 ft 256 kts 126°